COSMOS 1275 DEB, 42097

Orbit data source: Space-Track

COSMOS 1275 DEB, 42097 is space debris in LEO originally from a launch on Thu, 04 Jun 1981 UTC launched from the Plesetsk Missile And Space Complex (PKMTR). Debris objects in space refer to the collection of defunct objects orbiting the Earth. Examples of debris include non-operational satellites, rocket bodies, and fragments generated from explosions, collisions, or faulty payload assembly.

Loading next visibility...
Identifier
42097, 1981-053PH
Orbit
LEO
Country
Flag of CISCIS
Related business
Manufacturer
Unknown
Mission
Spacecraft
Bus & Motor
Unknown
Mass
Unknown
Launch date (UTC)
1981-06-04 (45 years ago)
Launch vehicle
Unknown
Launch site
Plesetsk Missile And Space Complex (PKMTR)
Object type
Payload
Rocket body
Debris
Shape & HBR
Unknown shape, 0.1 m
Radar Cross Section
Small (<0.1 m²)

Expand to show TLE details & history
Last TLE update: 3 days ago

TLE from 3 days ago
0 COSMOS 1275 DEB
1 42097U 81053PH  26091.18225598  .00003972  00000-0  16235-2 0  9997
2 42097  82.8038  61.6144 0051495 197.6478 162.2920 14.26379592179840
Epoch: 2026-04-01T04:22Z
TLE epoch observation values (Epoch: 2026-04-01T04:22:26.916Z)
Latitude
-0.00003°
Longitude
166.45348°
Altitude
842.082 km
Speed
7.413 km/s
True Right ascension
04h 06m 27s
True Declination
0° 00' 00"
Sunlit
Object was in daylight at epoch
Visualization orbit readout
Latitude
Unknown
Longitude
Unknown
Altitude
Unknown
Speed
Unknown
Apparent Right ascension
Unknown
Apparent Declination
Unknown
Sunlit
N/A
Visualization observer readout
Local Sidereal Time
22:03:12
Azimuth
Unknown
Elevation
Unknown
Doppler factor
Unknown
Orbital elements
Apogee altitude
837.91 km
Perigee altitude
763.973 km
Semi-major axis
7,179.078 km
Eccentricity
0.00515
Inclination
82.8038°
RAAN
61.6144°
Arg. of periapsis
197.6478°
True anomaly
162.47039°
Mean anomaly
162.292°
Eccentric anomaly
162.3813°
Mean motion
3.56813 °/min
Orbital period
100.89 mins
BSTAR
0.0016235
Loading maneuver chart data...
Computing Atmospheric mass density...
Loading historical data...
Loading historical data...
Loading historical data...
Loading historical data...
Loading historical data...
Loading historical data...
Loading historical data...

Documentation

Showing up to 5 results
|